Location: Altenst�hlen
(53.5567°N, 8.9425°E)
Time: 03:48:49
(UTC+00:00)

CSL-04 Debris - Pass Details

Date: 23 October 2019
Orbit: 827 x 848 km, 99.0° (Epoch: 12 November)

Event Time Altitude Azimuth Distance (km) Brightness Sun altitude
Rises 17:26:17 0° 158° (SSE) 3,388 7.1 -11.8°
Reaches altitude 10° 17:28:38 10° 157° (SSE) 2,460 6.4 -12.2°
Maximum altitude 17:34:06 81° 71° (ENE) 864 4.1 -13.0°
Drops below altitude 10° 17:39:37 10° 345° (NNW) 2,486 6.8 -13.8°
Sets 17:42:00 0° 345° (NNW) 3,427 7.6 -14.2°
